This is the latest recevied weather packets stored in our database for station/object VK2HIM-1. If no packets are shown the sender has not sent any weather packets the latest 10 day(s).
| Time | Temp. | Humidity | Pressure | Rain* | Wind** | Luminosity | Snow |
|---|---|---|---|---|---|---|---|
| 1777698230 | 22.78° C | 80% | 1022.1 hPa | 0 mm | - | - | - |
| 1777696430 | 22.78° C | 79% | 1022.2 hPa | 0 mm | - | - | - |
| 1777694630 | 23.33° C | 79% | 1022.4 hPa | 0 mm | - | - | - |
| 1777692829 | 24.44° C | 76% | 1022.3 hPa | 0 mm | - | - | - |
| 1777691029 | 24.44° C | 75% | 1022.6 hPa | 0 mm | - | - | - |
| 1777689229 | 24.44° C | 74% | 1023.2 hPa | 0 mm | - | - | - |
| 1777687429 | 24.44° C | 71% | 1023.7 hPa | 0 mm | - | - | - |
| 1777685629 | 24.44° C | 67% | 1024.3 hPa | 0 mm | - | - | - |
| 1777683828 | 23.33° C | 71% | 1024.8 hPa | 0 mm | - | - | - |
| 1777682028 | 23.33° C | 73% | 1025.1 hPa | 0 mm | - | - | - |
| 1777680227 | 23.33° C | 72% | 1025.2 hPa | 0 mm | - | - | - |
| 1777678427 | 22.78° C | 77% | 1025.4 hPa | 0 mm | - | - | - |
| 1777676627 | 21.67° C | 79% | 1025.5 hPa | 0 mm | - | - | - |
| 1777674827 | 20.56° C | 80% | 1025.4 hPa | 0 mm | - | - | - |
| 1777673027 | 18.89° C | 93% | 1025.3 hPa | 0 mm | - | - | - |
| 1777671227 | 16.67° C | 95% | 1025.1 hPa | 0 mm | - | - | - |
| 1777669427 | 17.22° C | 95% | 1025.3 hPa | 0 mm | - | - | - |
| 1777667627 | 16.11° C | 94% | 1025.6 hPa | 0 mm | - | - | - |
| 1777665827 | 16.11° C | 94% | 1025.3 hPa | 0 mm | - | - | - |
| 1777664027 | 15.56° C | 94% | 1025 hPa | 0 mm | - | - | - |
| 1777662231 | 15.56° C | 94% | 1024.8 hPa | 0 mm | - | - | - |
| 1777660431 | 15.56° C | 94% | 1024.8 hPa | 0 mm | - | - | - |
| 1777658631 | 15.56° C | 93% | 1025 hPa | 0 mm | - | - | - |
| 1777656831 | 15.56° C | 93% | 1025 hPa | 0 mm | - | - | - |
| 1777655031 | 16.67° C | 90% | 1025.3 hPa | 0 mm | - | - | - |
* Rain latest hour (hover to see other rain measurements)
** Current wind speed in m/s (hover to see current wind gust speed)